When you browse on this site, cookies collect data to enhance your experience and personalize the content and advertising you see.
Visit our Privacy Policy to learn more. By continuing to use the site, you agree to this use of cookies and data.

Hourly Weather Moung

Today, 20 September, Sunday

Time Temperature Precipitation Wind Pressure Humidity
00:00 +28°C° 0.4 mm 2 mps 756 mmHg 87%
01:00 +28°C° 0 mm 2 mps 756 mmHg 87%
02:00 +28°C° 0 mm 1 mps 755 mmHg 87%
03:00 +27°C° 0 mm 1 mps 755 mmHg 88%
04:00 +27°C° 0 mm 1 mps 755 mmHg 88%
05:00 +28°C° 0 mm 1 mps 755 mmHg 87%
06:00 +28°C° 0 mm 1 mps 755 mmHg 86%
07:00 +28°C° 0 mm 1 mps 756 mmHg 85%
08:00 +30°C° 0 mm 2 mps 756 mmHg 78%
09:00 +31°C° 0 mm 3 mps 757 mmHg 71%
10:00 +33°C° 0 mm 3 mps 757 mmHg 65%
11:00 +34°C° 0.1 mm 4 mps 756 mmHg 61%
12:00 +35°C° 0.1 mm 4 mps 756 mmHg 58%
13:00 +36°C° 0 mm 4 mps 755 mmHg 56%
14:00 +35°C° 0.4 mm 4 mps 755 mmHg 57%
15:00 +35°C° 0.4 mm 5 mps 754 mmHg 58%
16:00 +35°C° 0.4 mm 5 mps 754 mmHg 59%
17:00 +33°C° 0.1 mm 4 mps 755 mmHg 65%
18:00 +32°C° 0.1 mm 4 mps 755 mmHg 70%
19:00 +30°C° 0.1 mm 3 mps 756 mmHg 75%
20:00 +30°C° 0 mm 3 mps 756 mmHg 77%
21:00 +30°C° 0 mm 2 mps 757 mmHg 79%
22:00 +29°C° 0 mm 2 mps 757 mmHg 80%
23:00 +29°C° 0 mm 2 mps 757 mmHg 81%

Tomorrow, 21 September, Monday

Time Temperature Precipitation Wind Pressure Humidity
00:00 +29°C° 0 mm 2 mps 757 mmHg 83%
01:00 +28°C° 0 mm 3 mps 756 mmHg 84%
02:00 +28°C° 0.2 mm 3 mps 756 mmHg 86%
03:00 +28°C° 0.2 mm 3 mps 756 mmHg 87%
04:00 +27°C° 0.2 mm 3 mps 756 mmHg 89%
05:00 +27°C° 0.1 mm 3 mps 756 mmHg 89%
06:00 +27°C° 0.1 mm 3 mps 756 mmHg 88%
07:00 +27°C° 0.1 mm 3 mps 756 mmHg 88%
08:00 +29°C° 0 mm 3 mps 757 mmHg 81%
09:00 +30°C° 0 mm 3 mps 757 mmHg 74%
10:00 +33°C° 0 mm 3 mps 757 mmHg 66%
11:00 +33°C° 0.1 mm 4 mps 757 mmHg 64%
12:00 +34°C° 0.1 mm 4 mps 756 mmHg 62%
13:00 +35°C° 0.1 mm 4 mps 755 mmHg 59%
14:00 +35°C° 0.1 mm 4 mps 754 mmHg 60%
15:00 +35°C° 0.1 mm 4 mps 754 mmHg 60%
16:00 +35°C° 0.1 mm 4 mps 754 mmHg 61%
17:00 +34°C° 1.3 mm 3 mps 754 mmHg 67%
18:00 +33°C° 1.3 mm 3 mps 754 mmHg 73%
19:00 +30°C° 1.3 mm 2 mps 755 mmHg 78%
20:00 +30°C° 0.6 mm 2 mps 755 mmHg 80%
21:00 +30°C° 0.6 mm 2 mps 756 mmHg 81%
22:00 +30°C° 0.6 mm 1 mps 756 mmHg 83%
23:00 +29°C° 0 mm 1 mps 756 mmHg 84%

Day after tomorrow, 22 September, Tuesday

Time Temperature Precipitation Wind Pressure Humidity
00:00 +29°C° 0 mm 1 mps 756 mmHg 85%
01:00 +29°C° 0 mm 1 mps 755 mmHg 86%
02:00 +29°C° 0 mm 1 mps 755 mmHg 86%
03:00 +28°C° 0 mm 1 mps 755 mmHg 87%
04:00 +28°C° 0 mm 1 mps 755 mmHg 88%
05:00 +29°C° 0 mm 1 mps 755 mmHg 86%
06:00 +29°C° 0 mm 1 mps 756 mmHg 85%
07:00 +29°C° 0 mm 1 mps 756 mmHg 84%
08:00 +30°C° 0.3 mm 1 mps 756 mmHg 79%
09:00 +31°C° 0.3 mm 2 mps 756 mmHg 73%
10:00 +32°C° 0.3 mm 2 mps 756 mmHg 68%
11:00 +34°C° 0.4 mm 2 mps 755 mmHg 65%
12:00 +34°C° 0.4 mm 1 mps 755 mmHg 63%
13:00 +35°C° 0.4 mm 1 mps 754 mmHg 60%
14:00 +34°C° 1.9 mm 1 mps 753 mmHg 61%
15:00 +34°C° 1.9 mm 1 mps 753 mmHg 62%
16:00 +34°C° 1.9 mm 1 mps 752 mmHg 63%
17:00 +33°C° 2.5 mm 1 mps 753 mmHg 69%
18:00 +32°C° 2.5 mm 2 mps 753 mmHg 75%
19:00 +30°C° 2.5 mm 2 mps 754 mmHg 81%
20:00 +30°C° 1 mm 2 mps 754 mmHg 81%
21:00 +30°C° 1 mm 1 mps 755 mmHg 81%
22:00 +30°C° 1 mm 1 mps 756 mmHg 81%
23:00 +30°C° 0.8 mm 1 mps 755 mmHg 81%

23 September, Wednesday

Time Temperature Precipitation Wind Pressure Humidity
00:00 +30°C° 0.8 mm 1 mps 755 mmHg 81%
01:00 +29°C° 0.8 mm 1 mps 755 mmHg 82%
02:00 +29°C° 0.1 mm 1 mps 755 mmHg 82%
03:00 +29°C° 0.1 mm 1 mps 754 mmHg 83%
04:00 +29°C° 0.1 mm 1 mps 754 mmHg 83%
05:00 +29°C° 0.1 mm 1 mps 755 mmHg 83%
06:00 +29°C° 0.1 mm 1 mps 755 mmHg 83%
07:00 +29°C° 0.1 mm 2 mps 755 mmHg 82%
08:00 +30°C° 0 mm 1 mps 756 mmHg 76%
09:00 +32°C° 0 mm 1 mps 756 mmHg 69%
10:00 +33°C° 0 mm 1 mps 756 mmHg 62%
11:00 +34°C° 0.1 mm 1 mps 755 mmHg 59%
12:00 +35°C° 0.1 mm 1 mps 755 mmHg 56%
13:00 +36°C° 0.1 mm 1 mps 754 mmHg 53%
14:00 +36°C° 1.8 mm 2 mps 754 mmHg 58%
15:00 +35°C° 1.8 mm 3 mps 753 mmHg 62%
16:00 +34°C° 1.8 mm 4 mps 753 mmHg 67%
17:00 +33°C° 0.9 mm 4 mps 753 mmHg 72%
18:00 +31°C° 0.9 mm 3 mps 754 mmHg 77%
19:00 +30°C° 0.9 mm 3 mps 755 mmHg 82%
20:00 +30°C° 0.5 mm 3 mps 755 mmHg 83%
21:00 +30°C° 0.5 mm 3 mps 756 mmHg 84%
22:00 +30°C° 0.5 mm 3 mps 756 mmHg 84%
23:00 +29°C° 2.3 mm 2 mps 756 mmHg 85%

24 September, Thursday

Time Temperature Precipitation Wind Pressure Humidity
00:00 +29°C° 2.3 mm 2 mps 755 mmHg 85%
01:00 +29°C° 2.3 mm 2 mps 755 mmHg 85%
02:00 +28°C° 5.6 mm 3 mps 755 mmHg 88%
03:00 +27°C° 5.6 mm 3 mps 755 mmHg 90%
04:00 +26°C° 5.6 mm 3 mps 755 mmHg 93%
05:00 +27°C° 1.2 mm 3 mps 756 mmHg 92%
06:00 +27°C° 1.2 mm 2 mps 756 mmHg 91%
07:00 +27°C° 1.2 mm 2 mps 757 mmHg 90%
08:00 +28°C° 0 mm 2 mps 757 mmHg 85%
09:00 +29°C° 0 mm 2 mps 757 mmHg 80%
10:00 +30°C° 0 mm 2 mps 757 mmHg 75%
11:00 +31°C° 0 mm 3 mps 756 mmHg 69%
12:00 +34°C° 0 mm 3 mps 756 mmHg 64%
13:00 +35°C° 0 mm 3 mps 755 mmHg 59%
14:00 +35°C° 0.1 mm 3 mps 755 mmHg 60%
15:00 +34°C° 0.1 mm 4 mps 754 mmHg 61%
16:00 +34°C° 0.1 mm 4 mps 754 mmHg 63%
17:00 +33°C° 0 mm 4 mps 754 mmHg 67%
18:00 +31°C° 0 mm 3 mps 755 mmHg 71%
19:00 +30°C° 0 mm 3 mps 755 mmHg 76%
20:00 +29°C° 0 mm 2 mps 756 mmHg 77%
21:00 +29°C° 0 mm 2 mps 756 mmHg 78%
22:00 +29°C° 0 mm 2 mps 757 mmHg 79%
23:00 +28°C° 0.1 mm 2 mps 756 mmHg 80%

25 September, Friday

Time Temperature Precipitation Wind Pressure Humidity
00:00 +28°C° 0.1 mm 2 mps 756 mmHg 81%
01:00 +28°C° 0.1 mm 2 mps 756 mmHg 82%
02:00 +28°C° 0.1 mm 2 mps 755 mmHg 83%
03:00 +28°C° 0.1 mm 1 mps 755 mmHg 84%
04:00 +27°C° 0.1 mm 1 mps 755 mmHg 84%
05:00 +28°C° 0 mm 1 mps 755 mmHg 83%
06:00 +28°C° 0 mm 1 mps 755 mmHg 82%
07:00 +28°C° 0 mm 1 mps 756 mmHg 80%
08:00 +30°C° 0 mm 2 mps 756 mmHg 74%
09:00 +33°C° 0 mm 3 mps 756 mmHg 68%
10:00 +34°C° 0 mm 3 mps 756 mmHg 61%
11:00 +35°C° 0.4 mm 4 mps 755 mmHg 59%
12:00 +36°C° 0.4 mm 5 mps 754 mmHg 56%
13:00 +36°C° 0.4 mm 5 mps 754 mmHg 53%
14:00 +36°C° 0.8 mm 5 mps 753 mmHg 56%
15:00 +35°C° 0.8 mm 5 mps 753 mmHg 59%
16:00 +34°C° 0.8 mm 5 mps 753 mmHg 63%
17:00 +33°C° 0.1 mm 5 mps 753 mmHg 66%
18:00 +32°C° 0.1 mm 4 mps 754 mmHg 70%
19:00 +30°C° 0.1 mm 4 mps 754 mmHg 73%
20:00 +30°C° 0 mm 3 mps 755 mmHg 74%
21:00 +29°C° 0 mm 3 mps 755 mmHg 75%
22:00 +29°C° 0 mm 3 mps 756 mmHg 76%
23:00 +29°C° 0.1 mm 2 mps 756 mmHg 76%
Show more